Location: Unspecified
(0.0000°N, 0.0000°E)
Time: 19:46:08
(UTC+00:00)

deb Briz - Pass Details

Date: 14 February 2026
Orbit: 1858 x 2172 km, 64.9° (Epoch: 11 March)

Event Time Altitude Azimuth Distance (km) Brightness Sun altitude
Rises 03:47:03 0° 181° (S) 5,464 ? -35.7°
Reaches altitude 10° 03:50:54 10° 172° (S) 4,506 ? -34.8°
Maximum altitude 04:01:09 34° 111° (ESE) 3,067 ? -32.3°
Drops below altitude 10° 04:11:40 10° 51° (NE) 4,670 ? -29.8°
Sets 04:15:38 0° 42° (NE) 5,685 ? -28.8°
